EW4120 Weather Reports


time (UTC)temp
F
wind
direction
speed
knots
gust
knots
rain 1hr
in
rain 24hr
in
rain mn
in
humidity
%
barometer
mb
20260903130515 75 0.0 0.0 0.00 0.14 0.02 100 1020.3
20260903125536 74 0.0 0.0 0.00 0.14 0.02 100 1020.2
20260903124616 74 0.0 0.0 0.00 0.14 0.02 100 1020.2
20260903123636 73 0.0 0.0 0.00 0.14 0.02 100 1020.1
20260903122515 72 0.0 0.0 0.00 0.14 0.02 99 1020.1
20260903121515 72 0.0 0.0 0.00 0.14 0.02 99 1020.2
20260903120515 71 0.0 0.0 0.00 0.14 0.02 99 1020.2
20260903115515 71 0.0 0.0 0.00 0.14 0.02 99 1020.2
20260903114515 70 0.0 0.0 0.00 0.14 0.02 99 1020.0
20260903113515 70 0.0 0.0 0.00 0.14 0.02 99 1019.8
20260903112515 70 0.0 0.0 0.00 0.14 0.02 99 1019.9
20260903111616 70 0.0 0.0 0.00 0.14 0.02 99 1019.8
20260903110535 70 0.0 0.0 0.00 0.14 0.02 99 1019.8
20260903104535 70 0.0 0.0 0.00 0.14 0.02 99 1019.8
20260903103535 70 0.0 0.0 0.00 0.14 0.02 98 1019.8
20260903102535 70 0.0 0.0 0.00 0.14 0.02 98 1019.7
20260903101615 70 0.0 0.0 0.00 0.14 0.02 99 1019.6
20260903100515 70 0.0 0.0 0.00 0.14 0.02 99 1019.6
20260903095535 70 0.0 0.0 0.00 0.14 0.02 98 1019.5
20260903094515 70 0.0 0.0 0.01 0.14 0.02 98 1019.6
20260903093535 70 0.0 0.0 0.01 0.14 0.02 98 1019.6
20260903092535 70 0.0 0.0 0.01 0.14 0.02 98 1019.5
20260903091515 70 0.0 0.0 0.01 0.14 0.02 98 1019.4
20260903090535 71 0.0 0.0 0.01 0.14 0.02 98 1019.4
20260903085515 71 0.0 0.0 0.01 0.14 0.02 98 1019.3
20260903084617 71 0.0 0.0 0.00 0.13 0.01 98 1019.3
20260903083557 71 0.0 0.0 0.00 0.13 0.01 98 1019.4
20260903082517 71 0.0 0.0 0.00 0.13 0.01 98 1019.3
20260903081517 71 0.0 0.0 0.00 0.13 0.01 98 1019.2
20260903080517 71 0.0 0.0 0.00 0.13 0.01 98 1019.2
20260903075557 71 0.0 0.0 0.00 0.13 0.01 98 1019.1
20260903074617 72 0.0 0.0 0.00 0.13 0.01 98 1019.2
20260903073537 71 0.0 0.0 0.00 0.13 0.01 98 1019.0
20260903072517 72 0.0 0.0 0.00 0.13 0.01 98 1019.0
20260903071637 72 0.0 0.0 0.00 0.13 0.01 97 1019.1
20260903070517 72 0.0 0.0 0.00 0.13 0.01 98 1019.1
20260903065537 72 0.0 0.0 0.00 0.13 0.01 97 1019.2
20260903064517 72 0.0 0.0 0.00 0.13 0.01 98 1019.2
20260903063557 72 0.0 0.0 0.00 0.13 0.01 97 1019.1
20260903062517 72 0.0 0.0 0.00 0.14 0.01 97 1019.1
20260903061557 72 0.0 0.0 0.00 0.14 0.01 97 1019.0
20260903060517 72 0.0 0.0 0.00 0.14 0.01 97 1019.1
20260903055517 73 0.0 0.0 0.01 0.14 0.01 97 1019.1
20260903054517 73 0.0 0.0 0.01 0.14 0.01 97 1019.3
20260903053617 73 0.0 0.0 0.01 0.14 0.01 97 1019.2
20260903052617 73 0.0 0.0 0.01 0.14 0.01 97 1019.2
20260903051557 73 0.0 0.0 0.01 0.14 0.01 96 1019.2
20260903050537 73 0.0 0.0 0.01 0.14 0.01 96 1019.2
20260903045637 73 0.0 0.0 0.00 0.13 0.00 96 1019.1
20260903044517 73 0.0 0.0 0.00 0.13 0.00 96 1019.1
20260903043537 74 0.0 0.0 0.00 0.13 0.00 96 1019.1
20260903042537 74 0.0 0.0 0.00 0.13 0.00 96 1019.0
20260903041537 74 0.0 0.0 0.00 0.13 0.00 95 1019.2
20260903040537 74 0.0 0.0 0.00 0.13 0.00 95 1019.2
20260903035617 74 0.0 0.0 0.00 0.13 0.13 95 1019.1
20260903034617 75 0.0 0.0 0.01 0.13 0.13 95 1019.2
20260903033537 75 0.0 0.0 0.01 0.13 0.13 94 1019.3
20260903032537 75 0.0 0.0 0.01 0.13 0.13 94 1019.5
20260903031517 75 0.0 0.0 0.01 0.13 0.13 94 1019.4
20260903030517 75 0.0 0.0 0.01 0.13 0.13 93 1019.5
20260903024517 76 0.0 0.0 0.00 0.13 0.12 92 1019.6
20260903023557 76 0.0 0.0 0.00 0.13 0.12 92 1019.6
20260903022617 76 0.0 0.0 0.00 0.13 0.12 91 1019.5
20260903021517 77 0.0 0.0 0.00 0.13 0.12 91 1019.7
20260903020617 77 0.0 0.0 0.00 0.13 0.12 90 1019.6
20260903015517 77 0.0 0.0 0.01 0.13 0.12 90 1019.7
20260903014637 77 0.0 0.0 0.01 0.13 0.12 89 1019.7
20260903013537 78 0.0 0.0 0.02 0.13 0.12 88 1019.8
20260903012537 78 0.0 0.0 0.02 0.13 0.12 87 1019.5
20260903011517 79 0.0 0.0 0.02 0.13 0.12 86 1019.5
20260903010557 79 0.0 0.0 0.03 0.13 0.12 86 1019.4
20260903005537 80 0.0 0.0 0.02 0.12 0.11 85 1019.3
20260903004517 80 0.0 0.0 0.02 0.12 0.11 83 1019.2
20260903003517 81 0.0 0.0 0.01 0.11 0.10 82 1019.1
20260903002517 82 0.0 0.0 0.02 0.11 0.10 81 1019.0
20260903001517 82 0.0 0.0 0.03 0.11 0.10 80 1019.0
20260903000517 83 0.0 0.0 0.03 0.10 0.09 79 1019.0
20260902235557 84 0.0 0.0 0.03 0.10 0.09 77 1018.9
20260902234537 85 0.0 0.0 0.04 0.10 0.09 77 1018.9
20260902233517 86 0.0 0.0 0.04 0.11 0.09 75 1018.9
20260902232517 87 0.0 0.0 0.03 0.10 0.08 73 1018.8
20260902231557 89 0.0 0.0 0.02 0.09 0.07 70 1018.8
20260902230516 92 0.0 0.0 0.01 0.08 0.06 68 1019.0
20260902225537 94 0.0 0.0 0.01 0.09 0.06 63 1018.9
20260902224516 95 0.0 0.9 0.00 0.09 0.05 59 1018.9
20260902223557 96 0.0 0.0 0.00 0.09 0.05 57 1018.8
20260902222517 97 0.0 0.9 0.00 0.10 0.05 54 1018.9
20260902221516 97 0.0 0.9 0.00 0.10 0.05 54 1018.9
20260902220657 97 0.0 0.9 0.00 0.10 0.05 53 1018.9
20260902215516 97 0.0 2.6 0.00 0.11 0.05 56 1019.0
20260902214516 98 0.0 2.6 0.00 0.11 0.05 52 1019.0
20260902213516 99 0.0 1.7 0.00 0.11 0.05 53 1019.1
20260902212537 99 0.0 1.7 0.00 0.11 0.05 48 1019.1
20260902211637 98 0.0 1.7 0.00 0.11 0.05 52 1019.1
20260902210516 98 23 0.9 1.7 0.00 0.11 0.05 50 1019.1
20260902205516 98 23 0.9 2.6 0.00 0.11 0.05 52 1019.2
20260902204516 98 0.0 1.7 0.00 0.11 0.05 50 1019.2
20260902203516 99 0.0 0.9 0.00 0.11 0.05 51 1019.2
20260902202516 98 248 0.9 2.6 0.01 0.11 0.05 51 1019.3
20260902201516 98 0.0 2.6 0.01 0.11 0.05 52 1019.3
20260902200537 97 0.0 2.6 0.01 0.11 0.05 51 1019.3
20260902195636 97 23 1.7 5.2 0.01 0.11 0.05 53 1019.5
20260902194536 97 0.0 0.9 0.02 0.11 0.05 54 1019.6
20260902193516 97 293 0.9 2.6 0.02 0.11 0.05 53 1019.7
20260902192516 96 248 0.9 2.6 0.01 0.10 0.04 56 1019.8
20260902191516 94 0.0 2.6 0.01 0.10 0.04 59 1019.8
20260902190516 95 45 0.9 3.5 0.01 0.10 0.04 55 1019.9
20260902185516 96 315 0.9 2.6 0.01 0.10 0.04 56 1020.1
20260902184516 96 0.0 1.7 0.00 0.09 0.03 58 1020.2
20260902183516 95 0.0 2.6 0.00 0.09 0.03 57 1020.2
20260902182516 95 315 0.9 5.2 0.00 0.09 0.03 60 1020.4
20260902181516 94 225 0.9 2.6 0.00 0.09 0.03 60 1020.3
20260902180516 94 45 0.9 3.5 0.00 0.09 0.03 58 1020.3
20260902175516 93 270 0.9 3.5 0.00 0.09 0.03 59 1020.3
20260902174536 92 0.0 0.0 0.00 0.09 0.03 63 1020.5
20260902173516 93 23 1.7 4.3 0.00 0.09 0.03 57 1020.6
20260902172516 93 248 0.9 2.6 0.00 0.09 0.03 58 1020.7
20260902171616 93 248 0.9 5.2 0.00 0.09 0.03 58 1020.8
20260902170516 92 293 0.9 3.5 0.00 0.09 0.03 62 1020.9
20260902165516 92 0.0 0.9 0.00 0.09 0.03 62 1021.1
20260902164536 92 0.0 0.9 0.00 0.09 0.03 62 1021.2
20260902163636 91 23 0.9 2.6 0.01 0.09 0.03 61 1021.2
20260902162516 91 45 0.9 1.7 0.01 0.09 0.03 63 1021.3
20260902161536 90 0.0 1.7 0.01 0.09 0.03 64 1021.3
20260902160516 91 0.0 1.7 0.01 0.09 0.03 62 1021.4
20260902154516 89 0.0 0.9 0.01 0.09 0.03 69 1021.4
20260902153516 89 0.0 0.9 0.00 0.08 0.02 70 1021.5
20260902152556 88 0.0 0.9 0.00 0.08 0.02 66 1021.4
20260902151556 88 0.0 0.9 0.00 0.08 0.02 71 1021.4
20260902150516 87 0.0 3.5 0.00 0.08 0.02 72 1021.3
20260902145616 87 0.0 1.7 0.00 0.08 0.02 72 1021.3
20260902144516 87 0.0 1.7 0.00 0.08 0.02 73 1021.3
20260902143516 86 0.0 1.7 0.00 0.08 0.02 73 1021.2
20260902142516 84 0.0 1.7 0.00 0.09 0.02 80 1021.1
20260902141616 83 0.0 0.9 0.00 0.09 0.02 83 1021.0
20260902140616 81 0.0 0.9 0.01 0.09 0.02 88 1021.0
20260902135516 80 0.0 0.0 0.01 0.09 0.02 92 1021.0
20260902134516 79 0.0 0.0 0.01 0.09 0.02 96 1021.0
20260902133516 78 0.0 0.0 0.01 0.09 0.02 99 1021.0
20260902132556 77 0.0 0.0 0.01 0.09 0.02 100 1020.9
20260902131515 76 0.0 0.0 0.01 0.09 0.02 100 1021.0